Probability
0 0 0 0 0 0 0 0 0 0 0 0 0 0 0 0 0 1 1 1 1 2 3 3 1 1 1 1 0 0 0 0 1 2 2 2 2 1 1 2 2 1 1
0 0 0 0 0 0 0 0 0 0 0 0 0 0 0 0 0 0 1 1 2 2 3 4 2 0 1 1 1 0 0 0 0 1 1 1 1 1 1 2 2 2 2
0 0 0 0 0 0 0 0 0 0 0 0 0 0 0 0 0 0 0 1 1 1 3 4 3 1 1 2 2 1 1 0 0 0 0 0 0 1 1 1 1 1 1
0 0 0 0 0 0 0 0 0 0 0 0 0 0 0 0 0 0 0 0 0 0 1 2 3 3 3 4 3 2 1 0 0 0 0 0 0 1 1 0 0 0 0
0 0 0 0 0 0 0 0 0 0 0 0 0 0 0 0 0 0 0 0 0 0 0 1 3 3 3 4 4 3 1 1 0 0 0 0 0 0 0 0 0 0 0
0 0 0 0 0 0 0 0 0 0 0 0 0 0 0 0 0 0 0 0 0 0 0 0 1 1 2 2 3 4 3 2 1 0 1 1 1 1 1 1 1 0 0
0 0 0 0 0 0 0 0 0 0 0 0 0 0 0 0 0 0 0 0 0 0 0 0 0 0 2 2 3 4 4 3 1 1 2 2 2 2 2 2 1 0 0
0 0 0 0 0 0 0 0 0 0 0 0 0 0 0 0 0 0 0 0 0 0 0 0 0 0 1 3 3 3 3 3 3 3 3 3 3 1 1 1 1 0 0
0 0 0 0 0 0 0 0 0 0 0 0 0 0 0 1 0 0 0 0 0 0 0 0 0 0 1 2 2 2 3 3 4 3 3 3 2 1 0 0 0 0 0
0 0 0 0 0 0 0 0 0 0 0 0 0 0 0 0 0 0 0 0 0 0 0 0 0 0 0 1 2 2 2 3 4 3 2 2 1 0 0 0 0 0 0
0 0 0 0 0 0 0 0 0 0 0 0 0 0 0 0 0 0 0 0 0 0 0 0 0 1 1 2 2 2 1 2 3 3 2 2 1 0 0 0 0 0 0
0 0 0 0 0 0 0 0 0 0 0 0 0 0 0 0 0 0 0 0 0 0 0 0 0 2 3 3 2 1 1 1 2 3 3 2 1 0 0 0 0 0 0
0 0 0 0 0 0 0 0 0 0 0 0 0 0 0 0 0 0 0 0 0 0 0 0 0 1 2 3 2 1 0 0 1 2 3 2 1 0 0 0 0 0 0
0 0 0 0 0 0 0 0 0 0 0 0 0 0 0 0 0 0 0 0 0 0 0 0 0 0 1 1 1 1 0 0 0 0 1 1 0 0 1 0 0 0 0
0 0 0 0 0 0 0 0 0 0 0 0 0 0 0 0 0 0 0 0 0 0 0 0 0 0 0 0 0 0 0 0 0 0 0 0 1 1 1 0 0 0 0
0 0 0 0 0 0 0 0 0 0 0 0 0 0 0 0 0 0 0 0 0 0 0 0 0 0 0 0 0 0 0 1 1 0 0 0 1 1 0 0 0 0 0
0 0 0 0 0 0 0 0 0 0 0 0 0 0 0 0 0 0 0 0 0 0 0 0 0 0 0 0 0 0 1 2 2 1 0 0 1 1 0 0 0 0 0
0 0 0 0 0 0 0 0 0 0 0 0 0 0 0 0 0 0 0 0 0 0 0 0 0 0 0 0 0 0 1 2 2 1 0 0 0 0 0 0 0 0 0
0 0 0 0 0 0 0 0 0 0 0 0 0 0 0 0 0 0 0 0 0 0 0 0 0 0 0 0 0 0 1 3 3 1 0 0 0 0 0 0 0 0 0
0 0 0 0 0 0 0 0 0 0 0 0 0 0 0 0 0 0 0 0 0 0 0 0 0 0 0 0 0 1 2 3 3 2 1 0 0 0 0 0 0 0 0
0 0 0 0 0 0 0 0 0 0 0 0 0 0 0 0 0 0 0 0 0 0 0 0 0 0 0 0 0 1 2 3 3 3 2 1 0 0 0 0 0 0 0
0 1 1 1 0 0 0 0 0 0 0 0 0 0 0 0 0 0 0 0 0 0 0 0 0 0 0 0 1 1 1 2 3 3 2 1 0 0 0 0 0 0 0
1 2 2 2 2 1 0 0 0 0 0 0 0 0 0 0 0 0 0 0 0 0 0 0 0 0 0 0 0 0 0 1 1 2 2 1 0 0 0 0 0 0 0
1 2 3 3 4 3 1 0 0 0 0 0 0 0 0 0 0 0 0 0 0 0 0 0 0 0 0 0 0 0 0 0 0 1 1 0 0 0 0 0 0 0 0
2 3 4 4 4 3 1 0 0 1 1 1 2 1 0 0 0 0 0 0 0 0 0 0 0 0 0 0 0 0 0 0 0 0 0 0 1 1 1 1 1 0 0
4 5 6 5 4 3 1 0 1 2 2 2 3 2 1 0 0 0 0 0 0 0 0 0 0 0 0 0 0 0 0 0 0 0 0 1 2 2 2 2 2 1 0
Wind_Speed
2 2 2 2 2 2 2 2 2 4 4 4 4 5 5 5 5 4 4 9 9 8 8 7 7 7 7 7 7 7 7 7 8 9 10 10 8 7 7 7 7 6 6
2 2 2 2 2 2 2 2 3 3 3 3 4 4 4 4 4 4 3 5 8 9 8 7 7 7 7 7 7 8 8 8 8 9 9 9 9 8 7 7 7 7 7
2 2 2 2 2 2 2 2 3 2 2 2 3 3 3 4 3 3 3 3 4 7 8 8 6 6 6 7 8 8 8 8 8 10 10 10 9 9 9 8 7 7 8
3 3 2 2 2 2 2 2 2 2 2 2 2 2 2 2 2 3 2 2 2 3 5 8 7 7 7 6 7 7 8 8 8 9 9 9 10 10 10 10 9 9 9
2 2 2 2 2 1 1 1 2 2 2 2 1 1 2 2 1 1 2 2 2 2 3 5 6 6 6 7 7 7 7 7 8 8 8 8 8 9 9 10 10 10 10
2 2 1 1 1 1 1 1 2 1 1 1 1 1 1 1 1 2 2 2 2 3 3 3 2 4 6 6 6 6 7 7 7 7 7 7 7 8 8 9 9 10 10
1 1 1 1 1 1 1 1 1 1 1 0 0 0 1 1 1 1 1 1 1 2 1 2 2 1 3 5 5 6 6 6 6 6 7 7 7 8 8 9 9 9 9
0 1 0 0 0 0 0 0 0 1 1 1 2 1 1 2 1 1 0 1 1 1 1 1 1 1 1 2 5 5 5 5 5 5 6 7 7 7 7 8 8 8 8
0 0 0 0 0 0 0 1 1 1 1 1 2 2 1 1 0 1 0 0 0 1 0 0 1 1 1 1 3 4 4 4 4 4 5 6 6 6 6 7 7 7 7
1 1 1 1 1 1 1 1 1 1 2 1 0 1 2 2 2 1 1 0 0 1 1 0 0 0 0 1 2 4 4 3 3 4 4 5 5 5 5 6 6 7 6
1 1 1 1 1 1 2 2 2 2 2 2 2 1 1 1 4 2 1 1 1 1 0 1 1 1 0 1 1 2 3 3 3 3 4 5 5 5 5 5 6 6 6
1 1 2 2 2 2 2 2 2 3 3 3 3 2 2 2 2 2 2 2 2 1 1 1 1 1 0 0 1 3 3 3 3 3 3 4 4 5 5 5 5 5 5
2 2 2 2 2 2 2 2 3 3 3 3 3 3 3 3 2 2 3 2 2 2 2 2 1 1 1 1 1 2 3 4 4 3 3 3 3 4 4 4 4 4 3
2 2 3 3 3 3 3 3 3 3 3 3 4 3 3 3 2 2 2 3 3 2 3 2 1 1 1 1 2 2 3 5 4 4 4 4 3 3 3 3 3 3 2
2 3 3 3 3 3 3 3 3 3 3 3 3 4 3 2 3 3 2 3 4 4 3 2 1 1 1 1 1 2 2 5 5 5 5 5 4 4 3 3 3 3 2
3 3 3 3 3 3 3 3 3 3 4 3 3 4 4 3 3 3 3 3 4 4 3 1 1 1 1 2 2 2 1 4 5 5 5 5 5 5 4 4 4 3 3
4 4 3 3 3 3 3 3 4 4 5 4 4 5 5 4 3 3 3 3 3 4 5 3 2 2 3 3 2 3 2 4 4 6 6 6 6 6 6 5 5 4 4
4 4 4 4 4 4 4 4 5 5 5 5 5 5 5 4 5 4 3 4 4 4 4 4 3 2 4 3 3 3 3 3 3 6 6 6 6 7 6 6 6 5 5
4 4 4 4 4 4 5 5 5 5 6 6 6 5 5 5 5 4 5 4 4 3 4 4 3 2 2 2 3 3 4 3 4 4 6 7 7 7 7 7 6 6 6
5 4 5 5 5 5 5 5 6 6 6 5 5 6 5 5 5 5 5 5 4 4 4 4 3 3 3 2 3 3 4 4 4 4 4 4 6 8 8 8 8 7 7
5 5 5 5 5 5 4 5 6 6 6 5 5 5 5 5 4 4 3 4 4 4 4 4 4 3 3 3 4 4 4 4 4 4 4 4 5 6 7 8 9 8 8
6 6 6 6 5 4 3 4 6 6 6 6 5 5 5 6 5 5 5 5 5 5 5 4 4 5 5 5 4 4 4 4 3 3 4 4 4 5 5 5 6 7 8
6 6 6 6 6 5 3 4 5 6 6 5 5 5 4 3 5 5 5 6 6 6 6 6 6 6 6 5 5 5 5 5 4 3 4 5 4 5 5 3 5 7 8
5 5 5 6 5 4 3 3 4 7 6 6 6 5 5 5 3 4 5 5 5 6 6 6 6 6 5 5 5 5 5 5 4 3 4 4 4 5 4 4 7 8 8
5 5 5 6 6 5 3 4 4 5 5 6 6 5 5 5 2 3 6 6 5 5 5 5 6 5 4 3 3 4 4 4 4 4 4 4 4 4 4 5 5 9 8
5 5 5 5 6 5 2 2 4 4 5 5 4 4 3 4 3 3 5 6 6 5 4 4 5 6 6 5 6 6 5 5 4 4 4 4 4 3 4 4 4 5 6
Wind_Direction
69 76 75 68 65 68 75 65 64 66 58 53 50 49 53 53 47 53 70 56 42 43 49 59 68 76 78 79 81 86 83 77 75 77 81 86 90 89 86 85 85 88 89
61 63 69 72 66 61 56 64 68 67 56 49 48 48 48 50 45 47 54 76 62 46 45 56 68 74 80 82 86 85 86 89 86 84 84 82 82 82 83 85 83 83 86
57 55 52 65 67 67 64 52 64 61 62 57 56 49 47 41 33 37 51 45 71 68 51 51 62 71 78 83 86 87 86 86 86 85 86 85 83 79 78 80 81 86 87
63 63 54 56 55 55 52 51 45 54 59 45 43 43 53 51 34 30 39 50 43 55 70 58 60 69 77 81 85 90 86 85 89 87 85 84 82 80 80 77 78 86 87
65 76 54 45 58 50 55 54 45 37 45 41 42 37 35 38 36 41 38 41 53 49 59 79 80 69 75 80 85 89 88 86 92 93 92 89 85 84 82 82 83 85 88
63 75 82 63 62 61 64 75 72 52 38 40 35 42 34 26 27 33 35 40 35 40 39 45 85 95 83 78 82 89 90 89 93 97 97 94 92 90 88 88 88 88 87
60 69 60 63 39 59 52 83 77 91 44 352 239 145 136 93 41 50 35 33 53 38 34 52 45 63 109 103 86 86 86 91 92 97 99 98 100 97 94 93 90 89 90
71 50 36 68 105 81 153 71 10 319 25 319 308 274 214 176 129 82 54 14 27 59 25 36 65 73 76 111 96 92 86 90 100 105 106 104 104 102 100 100 98 94 94
181 130 12 321 277 216 234 255 223 245 280 291 317 313 301 316 128 145 13 265 14 10 351 359 48 55 98 115 119 117 105 106 115 121 116 114 112 112 109 105 106 104 101
218 226 247 258 250 253 249 254 254 260 268 272 274 308 313 333 283 215 189 224 334 323 319 302 322 331 111 115 105 90 111 124 133 136 132 131 128 126 122 114 112 110 104
218 226 251 251 256 257 262 266 267 262 258 272 277 256 252 268 271 277 248 245 225 224 258 295 296 307 292 179 163 114 123 129 132 141 138 135 134 133 129 129 127 120 113
213 223 251 246 253 258 260 261 257 255 265 268 270 261 253 249 258 260 261 250 248 235 221 209 251 264 266 203 128 94 134 139 136 132 127 130 131 135 137 135 136 133 133
219 228 237 248 254 255 254 256 256 254 251 252 256 262 267 273 284 278 270 266 265 246 233 213 199 218 230 212 132 122 147 155 149 140 132 129 125 130 139 144 145 141 147
241 246 250 253 256 254 248 241 253 253 252 249 253 255 258 265 264 267 270 269 259 241 229 218 190 191 214 219 78 215 161 168 166 162 154 150 144 143 146 154 158 161 157
245 246 245 249 248 249 251 245 246 249 253 256 256 251 250 250 249 251 259 267 272 263 242 209 201 191 224 210 148 212 200 160 178 178 175 171 166 166 169 174 178 176 173
241 240 244 252 252 249 247 245 248 251 247 249 266 265 255 244 239 240 244 249 260 272 266 235 218 198 206 219 208 234 213 156 181 184 188 186 181 179 181 183 185 190 183
245 246 248 255 257 254 250 242 245 239 244 244 245 257 257 250 237 235 241 245 249 256 257 248 239 226 208 220 203 229 224 214 185 183 195 196 192 188 190 191 196 194 193
248 248 248 250 254 257 256 250 247 245 247 250 252 257 260 250 244 241 239 240 241 246 253 253 234 226 230 226 224 237 234 221 214 174 192 200 200 200 200 201 205 205 202
239 241 245 247 249 251 252 251 250 247 250 253 254 257 262 253 243 235 239 244 243 243 248 252 245 226 234 229 234 243 233 224 225 179 186 197 204 208 207 204 205 206 202
240 241 246 248 248 250 253 254 253 251 251 255 258 257 260 258 256 248 240 244 241 240 239 244 242 225 223 229 234 231 222 214 224 208 196 200 199 206 210 209 207 207 207
246 246 247 250 253 252 262 269 260 256 255 253 255 257 260 267 279 277 263 250 240 240 235 236 239 232 221 214 227 225 228 220 220 210 210 210 206 211 206 209 211 213 212
247 249 249 251 254 253 277 281 277 259 256 254 258 261 255 239 239 242 257 260 252 248 245 238 238 241 240 233 237 232 229 223 224 200 216 221 214 222 219 216 188 200 210
244 247 249 251 254 253 252 254 264 261 256 256 259 261 263 267 250 245 233 232 235 238 249 255 253 255 253 243 236 237 232 233 244 204 209 225 215 230 228 210 177 194 208
245 245 248 250 253 251 247 249 255 251 255 253 252 255 257 261 269 267 258 245 245 238 235 246 259 261 261 258 242 246 246 242 250 220 206 236 223 232 231 218 182 195 207
251 247 245 248 249 246 234 241 248 253 255 256 254 252 255 260 290 270 258 256 253 246 221 229 256 268 277 265 252 241 232 229 235 222 205 233 235 235 236 226 194 191 203
256 256 250 249 251 254 241 243 252 252 256 257 257 254 236 267 289 257 254 257 259 261 254 233 234 239 240 224 213 234 233 234 240 233 196 215 226 224 234 223 209 196 200